{"data":{"norad_id":59909,"intl_designator":"2024-102A","name":"TIANQI-25","alt_names":[],"object_type":"PAYLOAD","status":"ACTIVE","operator":null,"country":"PRC","launch_date":"2024-05-29","launch_site_code":"YSLA","launch_vehicle":null,"mission":null,"orbit_class":"UNKNOWN","rcs_meters":null,"size_class":null,"mass_kg":null,"dimensions":null,"purposes":[],"wikipedia_slug":null,"has_3d_model":false,"image_url":null,"decayed_at":null,"tle_current":{"epoch":"2026-05-25T02:31:53.075424Z","epoch_age_seconds":76013,"freshness":"FRESH","line1":"1 59909U 24102A   26145.10547541  .00000065  00000+0  13294-3 0  9998","line2":"2 59909  44.9786   4.6558 0010798 129.4694 230.7095 13.99161526101674","mean_motion":13.99161526,"eccentricity":0.0010798,"inclination_deg":44.9786,"raan_deg":4.6558,"arg_perigee_deg":129.4694,"mean_anomaly_deg":230.7095,"bstar":0.00013294,"rev_number":10167,"period_min":102.91878194484,"perigee_km":888.84471007188,"apogee_km":904.55544822801,"semimajor_km":7274.8370791499,"source":"CELESTRAK","updated_at":"2026-05-25T13:38:01.745077Z"}}}